Change the Weather History Date:

Friday, November 30, 2012

  Actual Average Record
Temperature  
Mean Temperature 45 °F -  
Max Temperature 58 °F 57 °F 78 °F (2001)
Min Temperature 32 °F 38 °F 21 °F (1936)
Degree Days  
Heating Degree Days 20    
Moisture  
Dew Point 36 °F    
Average Humidity 79    
Maximum Humidity 98    
Minimum Humidity 45    
Precipitation  
Precipitation 0.00 in - - ()
Sea Level Pressure  
Sea Level Pressure 30.37 in    
Wind  
Wind Speed 0 mph (North)    
Max Wind Speed 0 mph    
Max Gust Speed -    
Visibility 9 miles    
Events      
Averages and records for this station are not official NWS values.
T = Trace of Precipitation, MM = Missing Value Source: NWS Daily Summary

Daily Weather History Graph

Daily Weather History Graph

Search for Another Location

Airport or City:

Trip Planner

Search our weather history database for the weather conditions in past years. The results will help you decide how hot, cold, wet, or windy it might be!

Date:

Astronomy

Nov. 30, 2012 Rise Set
Actual Time 6:57 AM EST 4:52 PM EST
Civil Twilight 6:29 AM EST 5:20 PM EST
Nautical Twilight 5:58 AM EST 5:51 PM EST
Astronomical Twilight 5:27 AM EST 6:22 PM EST
Moon 6:44 PM EST (11/30) 8:28 AM EST (11/30)
Length of Visible Light 10h 50m
Length of Day
9h 54m
Waning Gibbous, 96% of the Moon is Illuminated
Nov 30
Waning Gibbous
Dec 6
Last Quarter
Dec 13
New
Dec 20
First Quarter
Dec 28
Full

Hourly Weather History & Observations

Time (EST) Temp. Dew Point Humidity Pressure Visibility Wind Dir Wind Speed Gust Speed Precip Events Conditions
12:15 AM 41.2 °F 38.5 °F 90% 30.41 in 10.0 mi Calm Calm - N/A   Clear
12:35 AM 41.0 °F 37.2 °F 86% 30.41 in 10.0 mi Calm Calm - N/A   Clear
12:55 AM 41.2 °F 37.9 °F 88% 30.41 in 10.0 mi Calm Calm - N/A   Clear
1:15 AM 39.2 °F 36.3 °F 89% 30.40 in 10.0 mi Calm Calm - N/A   Clear
1:35 AM 36.9 °F 34.3 °F 91% 30.40 in 7.0 mi Calm Calm - N/A   Clear
1:55 AM 38.8 °F 36.9 °F 93% 30.40 in 10.0 mi Calm Calm - N/A   Clear
2:15 AM 36.0 °F 33.8 °F 92% 30.40 in 7.0 mi Calm Calm - N/A   Clear
2:35 AM 34.3 °F 33.1 °F 95% 30.40 in 5.0 mi Calm Calm - N/A   Clear
2:55 AM 34.0 °F 32.9 °F 96% 30.40 in 4.0 mi Calm Calm - N/A   Clear
3:15 AM 36.5 °F 35.8 °F 97% 30.39 in 7.0 mi Calm Calm - N/A   Clear
3:35 AM 38.1 °F 36.9 °F 95% 30.39 in 10.0 mi Calm Calm - N/A   Clear
3:55 AM 34.9 °F 33.8 °F 96% 30.39 in 3.0 mi Calm Calm - N/A   Clear
4:15 AM 34.3 °F 33.1 °F 95% 30.39 in 4.0 mi Calm Calm - N/A   Clear
4:55 AM 33.4 °F 32.0 °F 94% 30.39 in 7.0 mi Calm Calm - N/A   Clear
5:15 AM 33.4 °F 32.4 °F 96% 30.39 in 7.0 mi Calm Calm - N/A   Clear
5:35 AM 32.5 °F 32.0 °F 98% 30.39 in 4.0 mi Calm Calm - N/A   Clear
5:55 AM 34.0 °F 33.3 °F 97% 30.39 in 4.0 mi Calm Calm - N/A   Clear
6:15 AM 32.5 °F 32.0 °F 98% 30.40 in 5.0 mi Calm Calm - N/A   Clear
6:55 AM 32.2 °F 31.5 °F 97% 30.40 in 7.0 mi Calm Calm - N/A   Clear
7:15 AM 33.3 °F 32.2 °F 96% 30.40 in 7.0 mi Calm Calm - N/A   Clear
7:35 AM 33.1 °F 32.0 °F 96% 30.41 in 5.0 mi Calm Calm - N/A   Clear
7:55 AM 34.2 °F 32.9 °F 95% 30.41 in 7.0 mi Calm Calm - N/A   Clear
8:15 AM 38.3 °F 36.0 °F 91% 30.41 in 10.0 mi Calm Calm - N/A   Clear
8:35 AM 43.7 °F 39.9 °F 87% 30.42 in 10.0 mi Calm Calm - N/A   Clear
8:55 AM 45.1 °F 39.0 °F 79% 30.42 in 10.0 mi Calm Calm - N/A   Clear
9:15 AM 46.0 °F 39.2 °F 77% 30.43 in 10.0 mi Calm Calm - N/A   Clear
9:35 AM 47.3 °F 38.7 °F 72% 30.43 in 10.0 mi Calm Calm - N/A   Clear
9:55 AM 49.1 °F 38.5 °F 67% 30.43 in 10.0 mi Calm Calm - N/A   Clear
10:15 AM 49.5 °F 37.2 °F 63% 30.43 in 10.0 mi Calm Calm - N/A   Clear
10:35 AM 51.1 °F 36.0 °F 56% 30.42 in 10.0 mi Calm Calm - N/A   Clear
10:55 AM 50.7 °F 37.4 °F 60% 30.42 in 10.0 mi Calm Calm - N/A   Clear
11:15 AM 51.6 °F 36.3 °F 56% 30.41 in 10.0 mi Calm Calm - N/A   Clear
11:35 AM 53.4 °F 36.3 °F 52% 30.40 in 10.0 mi Calm Calm - N/A   Clear
11:55 AM 54.7 °F 36.3 °F 50% 30.39 in 10.0 mi Calm Calm - N/A   Clear
12:15 PM 55.4 °F 36.3 °F 49% 30.38 in 10.0 mi Calm Calm - N/A   Clear
12:35 PM 56.3 °F 36.1 °F 47% 30.37 in 10.0 mi Calm Calm - N/A   Clear
12:55 PM 56.7 °F 36.1 °F 46% 30.36 in 10.0 mi Calm Calm - N/A   Clear
1:15 PM 56.8 °F 36.9 °F 47% 30.35 in 10.0 mi Calm Calm - N/A   Clear
1:35 PM 57.2 °F 36.7 °F 46% 30.35 in 10.0 mi Calm Calm - N/A   Clear
1:55 PM 57.6 °F 36.5 °F 45% 30.34 in 10.0 mi Calm Calm - N/A   Clear
2:15 PM 58.1 °F 37.0 °F 45% 30.33 in 10.0 mi Calm Calm - N/A   Clear
2:35 PM 57.9 °F 36.9 °F 45% 30.33 in 10.0 mi Calm Calm - N/A   Clear
2:55 PM 58.1 °F 36.7 °F 45% 30.33 in 10.0 mi Calm Calm - N/A   Clear
3:15 PM 58.3 °F 36.7 °F 45% 30.32 in 10.0 mi Calm Calm - N/A   Clear
3:35 PM 57.9 °F 36.7 °F 45% 30.32 in 10.0 mi Calm Calm - N/A   Clear
3:55 PM 56.5 °F 38.3 °F 51% 30.32 in 10.0 mi Calm Calm - N/A   Clear
4:15 PM 54.5 °F 38.3 °F 54% 30.32 in 10.0 mi Calm Calm - N/A   Clear
4:35 PM 52.0 °F 38.5 °F 60% 30.32 in 10.0 mi Calm Calm - N/A   Clear
4:55 PM 49.6 °F 37.8 °F 64% 30.32 in 10.0 mi Calm Calm - N/A   Clear
5:15 PM 47.8 °F 38.3 °F 70% 30.33 in 10.0 mi Calm Calm - N/A   Clear
5:35 PM 45.1 °F 39.0 °F 79% 30.33 in 10.0 mi Calm Calm - N/A   Clear
5:55 PM 44.4 °F 39.7 °F 84% 30.33 in 10.0 mi Calm Calm - N/A   Clear
6:15 PM 44.1 °F 39.6 °F 84% 30.33 in 10.0 mi Calm Calm - N/A   Clear
6:35 PM 43.0 °F 40.1 °F 90% 30.33 in 10.0 mi Calm Calm - N/A   Clear
6:55 PM 42.1 °F 39.2 °F 90% 30.34 in 10.0 mi Calm Calm - N/A   Clear
7:15 PM 40.6 °F 37.9 °F 90% 30.34 in 10.0 mi Calm Calm - N/A   Clear
7:35 PM 40.5 °F 38.3 °F 92% 30.34 in 10.0 mi Calm Calm - N/A   Clear
7:55 PM 41.0 °F 39.4 °F 94% 30.34 in 10.0 mi Calm Calm - N/A   Clear
8:15 PM 40.5 °F 38.5 °F 93% 30.34 in 10.0 mi Calm Calm - N/A   Clear
8:35 PM 39.6 °F 37.6 °F 93% 30.34 in 10.0 mi Calm Calm - N/A   Clear
8:55 PM 40.1 °F 37.9 °F 92% 30.35 in 10.0 mi Calm Calm - N/A   Clear
9:15 PM 40.3 °F 37.8 °F 91% 30.35 in 10.0 mi Calm Calm - N/A   Clear
9:35 PM 39.2 °F 36.7 °F 91% 30.35 in 10.0 mi Calm Calm - N/A   Clear
9:55 PM 39.0 °F 37.6 °F 95% 30.36 in 5.0 mi Calm Calm - N/A   Clear
10:15 PM 37.6 °F 36.0 °F 94% 30.36 in 10.0 mi Calm Calm - N/A   Clear
10:35 PM 37.4 °F 35.8 °F 94% 30.36 in 10.0 mi Calm Calm - N/A   Clear
10:55 PM 37.0 °F 36.0 °F 96% 30.35 in 10.0 mi Calm Calm - N/A   Clear
11:15 PM 36.7 °F 35.6 °F 96% 30.35 in 7.0 mi Calm Calm - N/A   Clear
11:35 PM 36.5 °F 35.4 °F 96% 30.35 in 5.0 mi Calm Calm - N/A   Clear
11:55 PM 35.1 °F 33.6 °F 94% 30.35 in 3.0 mi Calm Calm - N/A   Clear